Regional Weather Roundup
Issued by NWS Upton, NY

Current Version | Previous Version | Graphics & Text | Print | Product List | Glossary Off
Versions: 1 2 3 4 5 6 7 8 9 10 11 12 13 14 15 16 17 18 19 20 21 22 23 24 25 26 27 28 29 30 31 32 33 34 35 36 37 38 39 40 41 42 43 44 45 46 47 48 49 50

246
ASUS41 KOKX 191008
RWROKX

REGIONAL WEATHER ROUNDUP
NATIONAL WEATHER SERVICE NEW YORK NY
500 AM EST THU JAN 19 2017

NOTE: "FAIR" INDICATES FEW OR NO CLOUDS BELOW 12,000 FEET WITH NO
SIGNIFICANT WEATHER AND/OR OBSTRUCTIONS TO VISIBILITY.

NYZ071-072-176-178-NJZ106-104-191100-
NEW YORK CITY METRO AREA

CITY           SKY/WX    TMP DP  RH WIND       PRES   REMARKS
Central Park   CLOUDY    41  36  82 CALM      30.04F
Wall St Helipt CLOUDY    40  37  89 SW5       30.04S
Bronx Bot Gard NOT AVBL
LaGuardia APRT CLOUDY    42  35  76 CALM      30.02S
Kennedy INTL   MOCLDY    38  35  89 CALM      30.03F
Breezy Point     N/A     39 N/A N/A W3          N/A
Newark/Liberty MOCLDY    41  37  86 SW5       30.02F
Teterboro      PTCLDY    37  35  92 CALM      30.02F
$$

NYZ177-179-078>081-191100-
LONG ISLAND NEW YORK

CITY           SKY/WX    TMP DP  RH WIND       PRES   REMARKS
Jones Beach      N/A     39 N/A N/A W2          N/A
Matinecock PT  NOT AVBL
Farmingdale    MOCLDY    38  36  92 W3        30.02F
MacArthur/ISP  CLOUDY    36  36 100 W3        30.02S
Shirley        CLOUDY    35  35 100 W3        30.02S FOG
Westhampton    CLOUDY    35  33  92 CALM      30.03S
Southampton    NOT AVBL
Bridgehampton  NOT AVBL
East Hampton   CLOUDY    36  35  96 CALM      30.01S
Montauk          N/A     38  36  92 N5        30.01S WCI  34
$$

NYZ052-065-067-191100-
HUDSON VALLEY

CITY           SKY/WX    TMP DP  RH WIND       PRES   REMARKS
White Plains   PTCLDY    36  34  92 CALM      29.99F
Newburgh       MOCLDY    36  36 100 W9        30.00S WCI  29
Montgomery     PTCLDY    31  30  96 SW7       29.99S FOG     WCI  24
Poughkeepsie   FOG       32  32 100 CALM      30.00R VSB 1
Albany         CLOUDY    36  34  92 S5        29.99S FOG     WCI  32
$$

NJZ001-105-106-008-010-013-015-019>022-104-191100-
NEW JERSEY

CITY           SKY/WX    TMP DP  RH WIND       PRES   REMARKS
Newark/Liberty MOCLDY    41  37  86 SW5       30.02F
Teterboro      PTCLDY    37  35  92 CALM      30.02F
Caldwell       CLOUDY    36  35  96 CALM      30.03F
Somerville     CLOUDY    38  36  92 CALM      30.01F
Linden         CLOUDY    40  37  89 CALM      30.02F
Sussex         CLOUDY    34  34 100 CALM      30.01S FOG
Andover          N/A     33  32  96 CALM      30.01F
Trenton        CLOUDY    41  38  89 CALM      30.02F
Millville      CLOUDY    40  40 100 W5        30.05S
Atlantic City  CLOUDY    39  37  92 CALM      30.04F
Wrightstown    CLOUDY    41  38  90 W3        30.01F
Toms River     CLOUDY    38  37  97 CALM      30.04S
Belmar         CLOUDY    38  37  97 W3        30.04S
$$

PAZ047>061-062-071-191100-
EASTERN PENNSYLVANIA

CITY           SKY/WX    TMP DP  RH WIND       PRES   REMARKS
Philadelphia   CLOUDY    45  37  73 NW5       30.06S
Allentown      MOCLDY    39  33  79 W6        30.02F WCI  35
Scranton       CLOUDY    37  37 100 CALM      30.00F FOG
$$

CTZ002-004>006-009-010-012-RIZ004-006-007-MAZ004-011-015-191100-
SOUTHERN NEW ENGLAND
 IN CT

CITY           SKY/WX    TMP DP  RH WIND       PRES   REMARKS
Bradley INTL   CLOUDY    33  32  96 CALM      29.99F
Hartford       CLOUDY    33  32  96 S3        30.01S FOG
Danbury        FOG       34  32  92 CALM      30.01S VSB 1
Wtrbury/Oxford CLOUDY    34  28  80 CALM      29.99S
Bridgeport     CLOUDY    37  33  85 CALM      30.02S
Meriden        CLOUDY    34  31  88 CALM      30.01S FOG
New Haven      CLOUDY    36  32  85 NW3       30.01S
Chester        CLOUDY    34  34 100 CALM      29.99F
Groton         CLOUDY    37  34  89 N3        30.00S
Wilimantic     CLOUDY    36  35  96 CALM      30.00F FOG

 IN RI

CITY           SKY/WX    TMP DP  RH WIND       PRES   REMARKS
Providence     CLOUDY    34  32  92 N3        30.01S
Block Island   NOT AVBL
Westerly       CLOUDY    37  32  82 N3        30.01S
 IN MA

CITY           SKY/WX    TMP DP  RH WIND       PRES   REMARKS
Boston         CLOUDY    32  30  92 NW7       30.01S WCI  26
Worcester      CLOUDY    31  29  92 SW5       29.94F WCI  26
Westfield      CLOUDY    32  32 100 S3        29.98S FOG
Provincetown   CLOUDY    40  36  86 NW8       29.99S WCI  34
Nantucket      CLOUDY    40  38  93 NW9       29.97R FOG     WCI  34
$$

ANZ330-335-338-340-345-350-353-355-191100-
COASTAL MARINE OBSERVATIONS


STATION/POSITION TIME  SKY/WX   TEMP    WIND        PRES    VSBY  WAVE
                                AIR SEA DIR/SP/G                  HT/PER
                 (UTC)          (F)     (DEG/KT/KT) (MB)    (MI)  (FT/S)
NY HARB ENTRANCE 0850            42 44  330/  6/  6 1016.7          5/ 9
20 S FIRE ISLAND 0950            41 45  340/  6/  8 1016.7          6/ 9
GREAT SOUTH BAY  NOT AVBL
23 SSW MONTAUK P 0850            41 47  320/ 10/ 12 1016.4          7/ 9
15 E BARNEGAT LI 0930               48                N/A           5/ 9
HUDSON CANYON    0850            46 51              1015.4          8/ 9
KINGS POINT      0942            38 39              1016.4
EXECUTION ROCKS  0930            38     180/  4/  4   N/A
CENTRAL LI SOUND 0930            38     330/  4/  4   N/A           0
EASTERN LI SOUND NOT AVBL
ROBBINS REEF     0942            40     250/  5/  6 1016.9
$$


>>>>>>>>>>>>>>>>>>>>>>>>>>>> KEY <<<<<<<<<<<<<<<<<<<<<<<<<<<
>                                                          <
>     SKY/WX - Sky Condition/Present Weather               <
>     TMP    - Temperature in Fahrenheit                   <
>     DP     - Dew Point in Fahrenheit                     <
>     RH     - Relative Humidity in Percent                <
>     WIND   - Direction (from) and Speed in MPH           <
>     PRES   - Mean Sea Level Pressure (inches of Hg)      <
>     WCI    - Wind Chill Index                            <
>     VSB    - VISIBILITY IN MILES                         <
>     HX     - HEAT INDEX                                  <
>     TC     - TEMPERATURE IN CELSIUS                      <
>     VRB    - VARIABLE WIND DIRECTION                     <
>                                                          <
>>>>>>>>>>>>>>>>>>>>>>>>>>>> KEY <<<<<<<<<<<<<<<<<<<<<<<<<<<




USA.gov is the U.S. government's official web portal to all federal, state and local government web resources and services.